New Iberia, LA

11:55 PM CDT on July 20, 2017 (GMT -0500)
Acadiana Regional

Weather History for KARA - November, 2013

Change the Weather History Date:

Monday, November 11, 2013

  Actual Average Record
Temperature  
Mean Temperature 66 °F 62 °F  
Max Temperature 77 °F 74 °F 85 °F (1966)
Min Temperature 54 °F 51 °F 31 °F (1953)
Degree Days  
Heating Degree Days 0 4  
Month to date heating degree days 31 36  
Since 1 July heating degree days 37 70  
Cooling Degree Days 1 1  
Month to date cooling degree days 21 24  
Year to date cooling degree days 3153 2769  
Growing Degree Days 14 (Base 50)    
Moisture  
Dew Point 51 °F    
Average Humidity 62    
Maximum Humidity 86    
Minimum Humidity 38    
Precipitation  
Precipitation 0.00 in 0.12 in 1.00 in (1974)
Month to date precipitation T 1.14  
Year to date precipitation 61.84 51.58  
Sea Level Pressure  
Sea Level Pressure 30.21 in    
Wind  
Wind Speed 4 mph (NE)    
Max Wind Speed 5 mph    
Max Gust Speed 9 mph    
Visibility 10 miles    
Events      
T = Trace of Precipitation, MM = Missing Value Source: NWS Daily Summary

Daily Weather History Graph

Daily Weather History Graph

Search for Another Location

Airport or City:

Trip Planner

Search our weather history database for the weather conditions in past years. The results will help you decide how hot, cold, wet, or windy it might be!

Date:

Astronomy

Nov. 11, 2013 Rise Set
Actual Time 6:29 AM CST 5:13 PM CST
Civil Twilight 6:04 AM CST 5:38 PM CST
Nautical Twilight 5:35 AM CST 6:07 PM CST
Astronomical Twilight 5:07 AM CST 6:35 PM CST
Moon 1:31 PM CST (11/11) 12:40 AM CST (11/11)
Length of Visible Light 11h 34m
Length of Day
10h 43m
Waxing Gibbous, 66% of the Moon is Illuminated
Nov 11
Waxing Gibbous
Nov 17
Full
Nov 25
Last Quarter
Dec 2
New
Dec 9
First Quarter

Hourly Weather History & Observations

Time (CST) Temp. Dew Point Humidity Pressure Visibility Wind Dir Wind Speed Gust Speed Precip Events Conditions
12:53 AM 57.0 °F 52.0 °F 83% 30.23 in 10.0 mi NE 6.9 mph - N/A   Clear
1:53 AM 57.0 °F 51.1 °F 81% 30.22 in 10.0 mi NE 6.9 mph - N/A   Clear
2:53 AM 55.9 °F 51.1 °F 84% 30.22 in 10.0 mi NE 4.6 mph - N/A   Clear
3:53 AM 55.9 °F 50.0 °F 80% 30.21 in 10.0 mi NE 5.8 mph - N/A   Clear
4:53 AM 55.0 °F 50.0 °F 83% 30.21 in 10.0 mi NE 5.8 mph - N/A   Clear
5:53 AM 54.0 °F 48.9 °F 83% 30.22 in 10.0 mi NE 4.6 mph - N/A   Clear
6:53 AM 54.0 °F 48.9 °F 83% 30.23 in 10.0 mi NNE 4.6 mph - N/A   Clear
7:53 AM 57.9 °F 50.0 °F 75% 30.24 in 10.0 mi ENE 5.8 mph - N/A   Clear
8:53 AM 64.9 °F 51.1 °F 61% 30.25 in 10.0 mi ENE 3.5 mph - N/A   Clear
9:53 AM 69.1 °F 50.0 °F 51% 30.26 in 10.0 mi Calm Calm - N/A   Clear
10:53 AM 73.0 °F 51.1 °F 46% 30.25 in 10.0 mi ENE 4.6 mph - N/A   Clear
11:53 AM 75.0 °F 51.1 °F 43% 30.22 in 10.0 mi ENE 5.8 mph - N/A   Clear
12:53 PM 75.9 °F 50.0 °F 40% 30.18 in 10.0 mi Variable 4.6 mph - N/A   Clear
1:53 PM 75.9 °F 48.9 °F 38% 30.16 in 10.0 mi NNE 5.8 mph - N/A   Clear
2:53 PM 75.9 °F 50.0 °F 40% 30.16 in 10.0 mi NE 5.8 mph - N/A   Clear
3:53 PM 75.0 °F 50.0 °F 41% 30.15 in 10.0 mi NE 6.9 mph - N/A   Clear
4:53 PM 72.0 °F 52.0 °F 49% 30.15 in 10.0 mi North - - N/A   Clear
5:53 PM 64.9 °F 52.0 °F 63% 30.16 in 10.0 mi NNE 6.9 mph - N/A   Clear
6:53 PM 61.0 °F 55.0 °F 81% 30.18 in 10.0 mi North 3.5 mph - N/A   Clear
7:53 PM 61.0 °F 54.0 °F 78% 30.19 in 10.0 mi Calm Calm - N/A   Clear
8:53 PM 59.0 °F 53.1 °F 81% 30.20 in 10.0 mi Calm Calm - N/A   Clear
9:53 PM 57.9 °F 53.1 °F 84% 30.21 in 10.0 mi North 3.5 mph - N/A   Clear
10:53 PM 57.0 °F 52.0 °F 83% 30.21 in 10.0 mi Calm Calm - N/A   Clear
11:53 PM 55.9 °F 52.0 °F 87% 30.21 in 10.0 mi North 4.6 mph - N/A   Clear